Location: CNYAC Observatory
(43.2150°N, 74.9500°W)
Time: 18:10:20
(UTC-04:00)

Cosmos 1975 Rocket - Visible Passes

Search period start: 21 June 2018 00:00
Search period end: 01 July 2018 00:00
Orbit: 604 x 634 km, 82.5° (Epoch: 20 June)

Date Brightness Start Highest point End Pass type
(mag) Time Alt. Az. Time Alt. Az. Time Alt. Az.
23 Jun 5.9 03:42:12 10° NNE 03:45:07 17° ENE 03:48:01 10° ESE visible
24 Jun 5.2 03:58:45 10° NNE 04:02:40 29° ENE 04:06:34 10° SE visible
25 Jun 4.0 04:15:43 10° N 04:20:07 52° E 04:24:29 10° SSE visible
26 Jun 3.1 04:32:57 10° N 04:37:28 85° W 04:41:57 10° S visible
27 Jun 5.8 03:13:34 10° NNE 03:16:36 18° ENE 03:19:37 10° ESE visible
28 Jun 4.9 03:30:10 10° NNE 03:34:09 30° ENE 03:38:06 10° SE visible
29 Jun 3.8 03:47:09 10° N 03:51:35 54° E 03:55:59 10° SSE visible
30 Jun 6.2 02:29:38 10° NE 02:30:26 10° ENE 02:31:13 10° ENE visible
30 Jun 3.1 04:04:25 10° N 04:08:56 81° W 04:13:24 10° S visible
